Track COSMOS 2100 now! 10-day predictions COSMOS 2100 is classified as:
1 20804U 90083A 21061.51606325 .00000053 00000-0 40712-4 0 9998 2 20804 82.9427 158.7991 0035502 263.6927 106.5498 13.74342292528014